[[{"header":{"parameterUnit":"m.s-1","parameterCategory":1,"la1":30.2991,"la2":30.254,"lo1":-89.0895,"lo2":-89.0444,"dy":0.0017,"dx":0.0017,"nx":28,"ny":28,"refTime":"2024-02-21T09:00:00:Z","depth":0,"parameterNumber":2,"parameterNumberName":"U-component_of_WINDS"},"data":[0,0,0,0,0,0,0,0,0,0,0,0,0,0,0,0,0,0,0,0,0,0,0,0,0,0,0,0,0,0,0,0,0,0,0,0,0,0,0,0,0,0,0,0,0,0,0,0,0,0,0,0,0,0,0,0,0,0,1.2299,1.2298,0,1.2224,1.2223,1.2223,1.2121,1.2119,1.2117,1.2116,1.2041,1.204,1.204,0,0,0,0,0,0,0,0,0,0,0,0,0,1.2354,1.2353,1.2299,1.2298,1.2297,1.2224,1.2223,1.2222,1.2121,1.2119,1.2117,1.2115,1.2041,1.204,1.204,0,0,0,0,0,0,0,0,0,0,0,0,0,1.231,1.2353,1.2299,1.2238,1.2232,1.2225,1.2223,1.2222,1.2122,1.2119,1.2116,1.2114,1.2041,1.204,1.204,1.2087,0,0,1.2038,1.2038,0,0,0,0,0,0,0,0,1.2312,1.2308,1.2248,1.2242,1.2235,1.2179,1.2215,1.2177,1.2122,1.2164,1.2116,1.2113,1.2089,1.2084,1.2076,1.2084,1.208,1.2038,1.2037,1.2037,1.2037,0,0,0,0,0,0,0,1.2315,1.231,1.227,1.2247,1.2239,1.2214,1.2205,1.2207,1.2142,1.216,1.2152,1.2145,1.2085,1.2077,1.2073,1.2079,1.2038,1.2037,1.2037,1.2037,1.2119,1.2121,0,0,0,0,0,0,1.2328,1.2314,1.2272,1.2267,1.2268,1.2215,1.2205,1.22,1.2141,1.213,1.2147,1.214,1.2079,1.2074,1.207,1.2119,1.2037,1.2037,1.2036,1.2116,1.2119,1.2122,0,0,0,0,0,0,1.2329,1.2325,1.2275,1.2288,1.228,1.2217,1.2212,1.22,1.2191,1.2131,1.2119,1.2151,1.2077,1.2071,1.2083,1.2115,1.2036,1.2036,1.2113,1.2117,1.2121,1.222,0,0,0,0,0,0,1.2331,1.2326,1.2344,1.2289,1.228,1.2289,1.2214,1.22,1.219,1.2181,1.2132,1.2121,1.2074,1.2084,1.2082,1.2113,1.2035,1.211,1.2115,1.2119,1.2214,1.2227,1.2238,0,0,0,0,0,1.2333,1.2376,1.2345,1.2341,1.2301,1.2292,1.2286,1.2231,1.2194,1.221,1.2171,1.2123,1.2113,1.2086,1.2083,1.2115,1.2108,1.2113,1.2119,1.2208,1.2224,1.2238,0,0,0,0,0,0,1.2437,1.2368,1.2333,1.2359,1.2332,1.2274,1.2294,1.225,1.2233,1.2225,1.2158,1.2148,1.2167,1.2142,1.2114,1.2156,1.2102,1.2108,1.2171,1.2186,1.2198,1.2203,1.2035,0,0,0,0,0,1.2462,1.2461,1.24,1.2429,1.2417,1.2358,1.2352,1.2312,1.2281,1.2269,1.2231,1.2204,1.2193,1.2189,1.2176,1.221,1.2196,1.2229,1.2242,1.2252,1.2257,1.227,1.2283,1.2141,1.2141,1.2141,0,0,1.2515,1.2477,1.2481,1.2449,1.2423,1.2422,1.2349,1.2352,1.235,1.227,1.2278,1.2249,1.2213,1.2235,1.2243,1.2215,1.2293,1.2259,1.2268,1.2267,1.2277,1.2291,1.2303,1.2145,1.2144,1.2143,0,0,1.2611,1.2583,1.2603,1.2578,1.2539,1.2499,1.2504,1.2453,1.243,1.2437,1.2375,1.2373,1.2358,1.2334,1.232,1.2404,1.2358,1.2402,1.2466,1.2479,1.2491,1.25,1.2528,1.2539,1.2408,1.2408,1.2408,0,1.2682,1.2678,1.2618,1.2624,1.2611,1.2537,1.2555,1.2534,1.2494,1.2486,1.2455,1.2433,1.2404,1.2418,1.2438,1.243,1.2432,1.2407,1.2494,1.2503,1.2511,1.2536,1.2547,1.2414,1.2413,1.2412,1.2412,0,1.2766,1.2764,1.2785,1.2746,1.2735,1.2748,1.2689,1.2685,1.2646,1.2609,1.2616,1.2578,1.2555,1.2556,1.2518,1.2564,1.2547,1.2506,1.2451,1.2531,1.2554,1.2563,1.2421,1.2419,1.2418,1.2416,0,0,1.2925,1.2852,1.286,1.2841,1.2792,1.2789,1.2797,1.2774,1.2771,1.2746,1.275,1.2738,1.2699,1.2683,1.2641,1.2653,1.2719,1.261,1.2608,1.263,1.2764,1.2794,1.2807,1.2689,1.269,1.2692,1.2766,0,1.301,1.302,1.2965,1.2989,1.2985,1.2914,1.2921,1.2891,1.2857,1.2848,1.281,1.2801,1.2752,1.2741,1.275,1.271,1.2745,1.2704,1.269,1.269,1.27,1.2819,1.2851,1.2924,1.2775,1.2777,1.2778,0,1.3111,1.3089,1.3112,1.3059,1.3056,1.3063,1.3036,1.303,1.2994,1.2968,1.2949,1.2901,1.2904,1.2852,1.2854,1.2827,1.2818,1.2798,1.2799,1.2795,1.2738,1.2816,1.2946,1.2956,1.2792,1.2791,1.279,0,1.3221,1.3198,1.3208,1.3194,1.3134,1.314,1.3115,1.3077,1.3066,1.3042,1.3034,1.3012,1.3,1.2983,1.293,1.2897,1.2937,1.2882,1.2914,1.2915,1.2925,1.2925,1.3053,1.2923,1.2922,1.2922,1.2922,0,1.3321,1.3337,1.3257,1.3263,1.3278,1.3215,1.3232,1.3201,1.3167,1.3164,1.3102,1.3101,1.3031,1.3022,1.2981,1.2987,1.2983,1.2961,1.2949,1.2965,1.2968,1.2957,1.295,1.2925,1.2924,1.2924,1.2923,0,1.3447,1.3394,1.3399,1.3341,1.3327,1.3341,1.3291,1.3293,1.3254,1.3252,1.3248,1.3187,1.3173,1.3118,1.3091,1.3063,1.3082,1.3061,1.3094,1.3086,1.3121,1.3118,1.3246,1.3259,1.3122,1.3124,1.3125,0,1.3513,1.3523,1.3466,1.346,1.3437,1.3429,1.3416,1.3354,1.3344,1.3303,1.331,1.3291,1.3272,1.3253,1.3205,1.3184,1.316,1.3207,1.3157,1.3172,1.3158,1.3157,1.3157,1.3217,1.3219,1.322,1.3222,0,1.3635,1.3608,1.3593,1.3568,1.3555,1.3533,1.3507,1.3505,1.3436,1.3427,1.3412,1.3397,1.3368,1.3349,1.332,1.3293,1.3245,1.3238,1.3244,1.326,1.3277,1.3266,1.3122,1.3235,1.3234,1.3233,1.3232,1.3231,1.3731,1.3736,1.3696,1.3681,1.3654,1.3631,1.363,1.359,1.3576,1.3547,1.3512,1.35,1.3461,1.3416,1.3393,1.3382,1.3356,1.3366,1.3367,1.337,1.3377,1.3281,1.3377,1.3377,1.3376,1.3376,1.3375,0,1.3848,1.3818,1.3805,1.377,1.3757,1.3713,1.3682,1.3674,1.3664,1.3633,1.3615,1.3596,1.3576,1.3527,1.3503,1.3503,1.348,1.3499,1.3497,1.3491,1.3403,1.3399,1.3517,1.3517,1.3517,1.3517,1.3517,1.3517,1.3907,1.3913,1.3881,1.3872,1.3841,1.3829,1.3815,1.3792,1.3766,1.3747,1.3731,1.3699,1.3659,1.3631,1.3611,1.3596,1.3589,1.3614,1.3593,1.3511,1.3498,1.3485,1.3481,1.3614,1.3614,1.3681,1.3682,1.3682]},{"header":{"parameterUnit":"m.s-1","parameterCategory":1,"la1":30.2991,"la2":30.254,"lo1":-89.0895,"lo2":-89.0444,"dy":0.0017,"dx":0.0017,"nx":28,"ny":28,"refTime":"2024-02-21T09:00:00:Z","depth":0,"parameterNumber":3,"parameterNumberName":"V-component_of_WINDS"},"data":[0,0,0,0,0,0,0,0,0,0,0,0,0,0,0,0,0,0,0,0,0,0,0,0,0,0,0,0,0,0,0,0,0,0,0,0,0,0,0,0,0,0,0,0,0,0,0,0,0,0,0,0,0,0,0,0,0,0,0.6153,0.6153,0,0.6145,0.6145,0.6145,0.6132,0.6132,0.6132,0.6132,0.6122,0.6122,0.6122,0,0,0,0,0,0,0,0,0,0,0,0,0,0.6155,0.6155,0.6153,0.6153,0.6153,0.6145,0.6145,0.6145,0.6132,0.6132,0.6132,0.6131,0.6122,0.6122,0.6122,0,0,0,0,0,0,0,0,0,0,0,0,0,0.6151,0.6155,0.6153,0.6146,0.6145,0.6145,0.6145,0.6145,0.6132,0.6132,0.6132,0.6131,0.6122,0.6122,0.6122,0.6129,0,0,0.6122,0.6122,0,0,0,0,0,0,0,0,0.6152,0.6151,0.6147,0.6146,0.6145,0.6139,0.6143,0.614,0.6132,0.6137,0.6132,0.6131,0.6128,0.6128,0.6127,0.6129,0.6128,0.6122,0.6122,0.6122,0.6122,0,0,0,0,0,0,0,0.6152,0.6152,0.615,0.6147,0.6146,0.6142,0.6141,0.6142,0.6135,0.6137,0.6136,0.6135,0.6128,0.6127,0.6127,0.6128,0.6122,0.6122,0.6122,0.6122,0.6134,0.6134,0,0,0,0,0,0,0.6153,0.6152,0.615,0.615,0.6148,0.6142,0.6141,0.6142,0.6135,0.6133,0.6135,0.6134,0.6127,0.6127,0.6126,0.6133,0.6122,0.6122,0.6122,0.6133,0.6134,0.6134,0,0,0,0,0,0,0.6154,0.6153,0.6151,0.6151,0.615,0.6143,0.6143,0.6142,0.6141,0.6134,0.6132,0.6136,0.6127,0.6126,0.6128,0.6133,0.6122,0.6122,0.6133,0.6134,0.6134,0.6147,0,0,0,0,0,0,0.6154,0.6154,0.6157,0.6151,0.615,0.6154,0.6143,0.6142,0.6141,0.614,0.6134,0.6133,0.6127,0.6128,0.6128,0.6132,0.6122,0.6133,0.6133,0.6134,0.6146,0.6148,0.6149,0,0,0,0,0,0.6154,0.6161,0.6157,0.6157,0.6154,0.6154,0.6153,0.6147,0.6142,0.6144,0.6139,0.6133,0.6132,0.6129,0.6129,0.6133,0.6132,0.6133,0.6134,0.6146,0.6148,0.6149,0,0,0,0,0,0,0.6167,0.616,0.6156,0.6161,0.6158,0.6152,0.6155,0.6149,0.6148,0.6146,0.6138,0.6136,0.6139,0.6136,0.6133,0.6138,0.6131,0.6132,0.614,0.6142,0.6144,0.6144,0.6122,0,0,0,0,0,0.6171,0.6172,0.6165,0.6171,0.6169,0.6162,0.6162,0.6157,0.6154,0.6152,0.6148,0.6144,0.6143,0.6142,0.6141,0.6146,0.6144,0.6148,0.615,0.6151,0.6152,0.6153,0.6154,0.6137,0.6137,0.6137,0,0,0.6178,0.6174,0.6176,0.6173,0.617,0.6171,0.6161,0.6163,0.6163,0.6152,0.6154,0.615,0.6145,0.6149,0.615,0.6146,0.6156,0.6152,0.6153,0.6153,0.6154,0.6155,0.6157,0.6137,0.6137,0.6137,0,0,0.6192,0.619,0.6193,0.6191,0.6186,0.6182,0.6182,0.6177,0.6174,0.6175,0.6167,0.6166,0.6165,0.6162,0.616,0.6171,0.6164,0.6171,0.6179,0.618,0.6181,0.6182,0.6186,0.6187,0.6171,0.6171,0.6171,0,0.6202,0.6203,0.6196,0.6197,0.6196,0.6187,0.619,0.6187,0.6183,0.6182,0.6178,0.6175,0.6171,0.6173,0.6175,0.6174,0.6174,0.6171,0.6182,0.6183,0.6184,0.6187,0.6188,0.6172,0.6172,0.6172,0.6172,0,0.6215,0.6215,0.6219,0.6214,0.6213,0.6216,0.6208,0.6208,0.6203,0.6198,0.6199,0.6194,0.6191,0.6191,0.6186,0.6191,0.6189,0.6183,0.6176,0.6186,0.6189,0.619,0.6173,0.6173,0.6173,0.6172,0,0,0.6237,0.6228,0.623,0.6227,0.6221,0.6221,0.6223,0.622,0.6219,0.6216,0.6216,0.6215,0.6209,0.6207,0.6202,0.6203,0.621,0.6197,0.6196,0.6199,0.6215,0.6218,0.622,0.6206,0.6206,0.6206,0.6215,0,0.6249,0.6251,0.6245,0.6248,0.6248,0.6239,0.624,0.6236,0.6231,0.623,0.6224,0.6223,0.6216,0.6215,0.6215,0.6209,0.6213,0.6209,0.6205,0.6205,0.6206,0.6221,0.6226,0.6234,0.6216,0.6216,0.6216,0,0.6264,0.6261,0.6265,0.6258,0.6258,0.6259,0.6255,0.6254,0.6249,0.6245,0.6242,0.6236,0.6235,0.6229,0.6227,0.6224,0.6222,0.6219,0.6219,0.6218,0.6211,0.622,0.6236,0.6237,0.6218,0.6218,0.6217,0,0.6279,0.6276,0.6278,0.6276,0.6268,0.6269,0.6266,0.626,0.6258,0.6255,0.6253,0.625,0.6248,0.6245,0.6237,0.6233,0.6236,0.6229,0.6232,0.6232,0.6233,0.6233,0.6249,0.6233,0.6233,0.6233,0.6233,0,0.6293,0.6295,0.6284,0.6285,0.6287,0.6279,0.6281,0.6277,0.6272,0.6271,0.6262,0.6262,0.6251,0.6249,0.6243,0.6242,0.6242,0.6238,0.6236,0.6238,0.6239,0.6237,0.6236,0.6233,0.6233,0.6233,0.6233,0,0.631,0.6303,0.6304,0.6296,0.6294,0.6296,0.6289,0.6289,0.6283,0.6282,0.6281,0.6273,0.6269,0.6261,0.6256,0.6252,0.6252,0.625,0.6254,0.6253,0.6257,0.6256,0.6271,0.6272,0.6256,0.6256,0.6257,0,0.6319,0.6321,0.6313,0.6312,0.6309,0.6307,0.6305,0.6297,0.6295,0.6289,0.6289,0.6285,0.6282,0.6277,0.627,0.6265,0.6262,0.6267,0.6261,0.6263,0.6261,0.6261,0.626,0.6269,0.6269,0.6269,0.6269,0,0.6336,0.6332,0.633,0.6326,0.6324,0.6321,0.6317,0.6316,0.6307,0.6305,0.6302,0.6299,0.6293,0.6289,0.6283,0.6279,0.6272,0.6271,0.6271,0.6274,0.6276,0.6274,0.6257,0.6271,0.6271,0.6271,0.627,0.627,0.6348,0.6349,0.6343,0.6341,0.6337,0.6333,0.6333,0.6327,0.6324,0.6319,0.6314,0.6311,0.6305,0.6296,0.6292,0.6289,0.6286,0.6286,0.6286,0.6287,0.6287,0.6277,0.6288,0.6288,0.6288,0.6288,0.6288,0,0.6364,0.636,0.6358,0.6352,0.635,0.6344,0.6339,0.6337,0.6335,0.633,0.6326,0.6322,0.6318,0.631,0.6305,0.6304,0.63,0.6302,0.6302,0.6301,0.6291,0.6291,0.6305,0.6305,0.6305,0.6305,0.6305,0.6305,0.6372,0.6372,0.6368,0.6365,0.6361,0.6358,0.6356,0.6352,0.6347,0.6343,0.634,0.6335,0.6328,0.6322,0.6317,0.6315,0.6313,0.6316,0.6313,0.6304,0.6302,0.63,0.63,0.6316,0.6316,0.6323,0.6323,0.6323]}]]